Back to catalog

QIANFAN-188

AliveCommunicationsPO
NORAD 69406·PAYLOAD·🇨🇳 China

Launched Jun 5, 2026 from Wenchang Space Launch Site

Loading…

Next Passes (next 24 hours)

TLE

FreshSource: Space-Track

Epoch: Sep 14, 2026, 13:12 UTC

1 69406U 26125F   26257.55042937  .00000025  00000-0  19614-4 0  9990
2 69406  88.9884 270.9212 0001967 103.2613 256.8758 13.51029274 14015

Track QIANFAN-188 in real time with AllMySat

Download on the App Store